Regional Weather Roundup
Issued by NWS Northern Indiana

Home | Current Version | Previous Version | Graphics & Text | Print | Product List | Glossary On
Versions: 1 2 3 4 5 6 7 8 9 10 11 12 13 14 15 16 17 18 19 20 21 22 23 24 25 26 27 28 29 30 31 32 33 34 35 36 37 38 39 40 41 42 43 44 45 46 47 48 49 50
000
ASUS43 KIWX 260300
RWRIWX

KIWX WEATHER ROUNDUP
NATIONAL WEATHER SERVICE NORTHERN INDIANA
1100 PM EDT MON JUL 25 2016

NOTE: "FAIR" INDICATES FEW OR NO CLOUDS BELOW 12,000 FEET WITH NO
SIGNIFICANT WEATHER AND/OR OBSTRUCTIONS TO VISIBILITY.

* THESE STATIONS ARE NOT UNDER NWS QUALITY CONTROL. THEY ALSO MAY NOT
  REPORT WEATHER SUCH AS PRECIPITATION OR FOG.

INZ001>027-260400-
NORTHERN INDIANA

CITY           SKY/WX    TMP DP  RH WIND       PRES   REMARKS
GARY*          MOCLDY    72  72 100 CALM      30.02R
KNOX*          MOCLDY    68  66  94 CALM      30.02S
SOUTH BEND     CLOUDY    70  64  81 CALM      30.03R
GOSHEN         CLOUDY    70  63  78 S3        30.02S
MONTICELLO*    CLEAR     72  62  69 CALM      30.01S
ANGOLA*        CLEAR     70  63  78 CALM      30.03R
FORT WAYNE     PTCLDY    73  65  75 NW3       30.02R
PERU/GRISSOM   CLOUDY    71  68  90 N2        30.02R

$$
INZ028>050-260400-
CENTRAL INDIANA

CITY           SKY/WX    TMP DP  RH WIND       PRES   REMARKS
LAFAYETTE      PTCLDY    73  67  81 NE6       30.01R
KOKOMO*        PTCLDY    73  64  73 N5        30.03R
MUNCIE*        MOCLDY    76  69  79 CALM      30.03R
INDIANAPOLIS   MOCLDY    80  70  71 N7        30.02R

$$
MIZ043>046-050>051-056>058-064>065-071>073-077>080-260400-
SOUTHWEST LOWER MICHIGAN

CITY           SKY/WX    TMP DP  RH WIND       PRES   REMARKS
BATTLE CREEK   CLEAR     67  63  87 W5        30.03R
BENTON HARBOR  CLEAR     69  65  86 CALM      30.02R
COLDWATER*     CLOUDY    70  63  79 CALM      30.02R
HILLSDALE*     CLOUDY    70  62  74 NW6       30.02R
HOLLAND        CLEAR     69  66  90 CALM      30.02S
GRAND RAPIDS   CLEAR     74  62  66 W7        30.02R
KALAMAZOO      CLEAR     72  62  71 W3        30.02R
STURGIS*       CLOUDY    68  62  81 CALM      30.01S
THREE RIVERS*  FAIR      71  63  76 CALM      30.02S

$$
OHZ001>008-015>018-024>025-260400-
NORTHWEST OHIO

CITY           SKY/WX    TMP DP  RH WIND       PRES   REMARKS
DEFIANCE       CLOUDY    76  65  68 NW6       30.00R
FINDLAY        MOCLDY    74  67  78 SW3       29.98R
TOLEDO EXPRESS CLOUDY    76  68  76 W8        29.99R
TOLEDO METCALF PTCLDY    78  68  71 W7        29.98R
LIMA           PTCLDY    74  70  87 W5        30.01R

$$
AND FOR LAKE MICHIGAN COASTAL AND OPEN LAKE BUOY OBSERVATIONS

STATION/POSITION TEMP    WIND        PRES    VSBY  WAVE
                 AIR SEA DIR/SP/G                  HT/PER
                 (F)     (DEG/KT/KT) (MB)    (MI)  (FT/S)
CALUMET HARBOR    76     100/  4/  5   N/A
MICHIGAN CITY     76      40/  5/  5   N/A
BURNS HARBOR      78      CALM  /  7 1016.3R
SAINT JOSEPH      75      60/  1/  2 1016.6S
SOUTH LAKE BUOY   75 74  180/  6/  6 1015.3          0
4 MI NW BRIDGMAN  78 77   40/  4/  6 1015.5R         1/ 4
MICHIGAN CITY     76 75   60/  4/  6   N/A           1

$$
&&



USA.gov is the U.S. government's official web portal to all federal, state and local government web resources and services.